EW8080 Weather Reports


Display with metric or nautical units.
time (UTC)temp
F
wind
direction
speed
MPH
gust
MPH
rain 1hr
in
rain 24hr
in
rain mn
in
humidity
%
barometer
mb
20260505211003 61 217 13.0 26.0 0.00 0.00 0.00 73 1010.6
20260505210004 61 233 13.0 24.0 0.00 0.00 0.00 72 1010.8
20260505205003 61 218 15.0 28.0 0.00 0.00 0.00 72 1010.7
20260505204003 62 211 16.0 28.0 0.00 0.00 0.00 72 1010.7
20260505203003 62 215 13.0 24.0 0.00 0.00 0.00 71 1010.6
20260505202025 63 207 14.0 29.0 0.00 0.00 0.00 70 1010.4
20260505201003 63 210 13.0 29.0 0.00 0.00 0.00 70 1010.9
20260505200003 63 215 15.0 25.0 0.00 0.00 0.00 71 1010.9
20260505195003 63 215 12.0 27.0 0.00 0.00 0.00 71 1011.1
20260505194003 63 225 14.0 27.0 0.00 0.00 0.00 71 1011.3
20260505193003 63 223 16.0 26.0 0.00 0.00 0.00 69 1011.2
20260505192005 64 218 12.0 25.0 0.00 0.00 0.00 70 1011.1
20260505191004 64 225 15.0 25.0 0.00 0.00 0.00 70 1011.2
20260505190003 65 212 14.0 24.0 0.00 0.00 0.00 70 1011.3
20260505185003 65 222 15.0 28.0 0.00 0.00 0.00 69 1011.3
20260505184003 65 214 13.0 28.0 0.00 0.00 0.00 68 1011.5
20260505183003 65 212 13.0 19.0 0.00 0.00 0.00 69 1011.3
20260505182004 65 197 17.0 25.0 0.00 0.00 0.00 67 1011.6
20260505181003 66 202 11.0 33.0 0.00 0.00 0.00 68 1011.6
20260505180003 66 211 14.0 33.0 0.00 0.00 0.00 68 1011.8
20260505175024 66 210 14.0 33.0 0.00 0.00 0.00 66 1011.9
20260505174003 66 212 12.0 19.0 0.00 0.00 0.00 67 1011.9
20260505173003 67 207 12.0 19.0 0.00 0.00 0.00 68 1011.8
20260505172003 66 226 9.0 22.0 0.00 0.00 0.00 69 1012.0
20260505171004 66 211 9.0 22.0 0.00 0.00 0.00 69 1012.0
20260505170004 66 206 13.0 21.0 0.00 0.00 0.00 67 1012.2
20260505165003 66 203 15.0 24.0 0.00 0.00 0.00 67 1012.3
20260505164003 67 213 11.0 24.0 0.00 0.00 0.00 67 1012.4
20260505163024 67 196 11.0 22.0 0.00 0.00 0.00 67 1012.4
20260505162003 67 210 7.0 22.0 0.00 0.00 0.00 69 1012.3
20260505161024 66 190 13.0 23.0 0.00 0.00 0.00 68 1012.5
20260505153003 66 219 13.0 19.0 0.00 0.00 0.00 67 1012.7
20260505152003 68 223 9.0 19.0 0.00 0.00 0.00 65 1012.7
20260505151024 68 220 9.0 28.0 0.00 0.00 0.00 65 1012.6
20260505125003 63 217 10.0 23.0 0.00 0.00 0.00 72 1012.4
20260505124003 63 206 9.0 20.0 0.00 0.00 0.00 73 1012.6
20260505123003 61 201 11.0 21.0 0.00 0.00 0.00 74 1012.5
20260505122024 60 222 12.0 21.0 0.00 0.00 0.00 78 1012.2
20260505121004 58 212 11.0 18.0 0.00 0.00 0.00 80 1012.3
20260505120024 57 220 8.0 18.0 0.00 0.00 0.00 83 1012.4
20260505115003 55 227 9.0 22.0 0.00 0.00 0.00 86 1012.3
20260505114024 54 212 7.0 22.0 0.00 0.00 0.00 87 1012.4
20260505113003 54 217 12.0 22.0 0.00 0.00 0.00 88 1012.4
20260505112003 53 228 8.0 23.0 0.00 0.00 0.00 89 1012.4
20260505111003 52 222 9.0 23.0 0.00 0.00 0.00 91 1012.4
20260505102003 50 195 6.0 14.0 0.00 0.00 0.00 92 1012.2
20260505101024 50 186 7.0 14.0 0.00 0.00 0.00 92 1012.1
20260505100004 50 199 5.0 13.0 0.00 0.00 0.00 92 1012.2
20260505095003 50 176 6.0 13.0 0.00 0.00 0.00 92 1012.1
20260505094003 50 168 7.0 12.0 0.00 0.00 0.00 92 1012.0
20260505093003 50 180 4.0 9.0 0.00 0.00 0.00 91 1012.2
20260505092003 50 186 4.0 9.0 0.00 0.00 0.00 91 1012.2
20260505091003 50 219 4.0 9.0 0.00 0.00 0.00 91 1012.1
20260505090003 50 212 6.0 9.0 0.00 0.00 0.00 91 1012.2
20260505085004 50 210 7.0 9.0 0.00 0.00 0.00 91 1012.1
20260505084003 50 203 6.0 8.0 0.00 0.00 0.00 91 1012.4
20260505083003 50 204 6.0 10.0 0.00 0.00 0.00 91 1012.3
20260505082003 50 221 6.0 10.0 0.00 0.00 0.00 92 1012.1
20260505081024 50 206 5.0 9.0 0.00 0.00 0.00 91 1012.3
20260505080003 50 190 5.0 8.0 0.00 0.00 0.00 91 1012.2
20260505075003 50 192 6.0 12.0 0.00 0.00 0.00 90 1012.3
20260505074024 50 184 4.0 12.0 0.00 0.00 0.00 89 1012.3
20260505073003 50 203 5.0 12.0 0.00 0.00 0.00 89 1012.3
20260505072003 50 202 5.0 8.0 0.00 0.00 0.00 88 1012.3
20260505071003 50 188 3.0 13.0 0.00 0.00 0.00 88 1012.3
20260505070003 50 190 4.0 13.0 0.00 0.00 0.00 88 1012.3
20260505065003 50 220 4.0 8.0 0.00 0.00 0.00 87 1012.3
20260505064003 50 214 3.0 8.0 0.00 0.00 0.00 87 1012.3
20260505063003 50 215 5.0 9.0 0.00 0.00 0.00 87 1012.3
20260505062003 50 222 5.0 9.0 0.00 0.00 0.00 87 1012.3
20260505061003 50 215 4.0 11.0 0.00 0.00 0.00 87 1012.3
20260505060003 51 207 6.0 12.0 0.00 0.00 0.00 87 1012.3
20260505055003 51 199 6.0 14.0 0.00 0.00 0.00 87 1012.3
20260505054024 51 206 6.0 14.0 0.00 0.00 0.00 87 1012.2
20260505053003 51 213 7.0 14.0 0.00 0.00 0.00 87 1012.1
20260505052003 51 225 7.0 14.0 0.00 0.00 0.00 87 1012.3
20260505051003 51 225 5.0 10.0 0.00 0.00 0.00 87 1012.3
20260505041003 51 207 5.0 14.0 0.00 0.00 0.00 84 1012.7
20260505040004 51 202 7.0 16.0 0.00 0.00 0.00 84 1012.8
20260505035003 51 206 8.0 16.0 0.00 0.00 0.00 85 1012.8
20260505034003 51 215 6.0 10.0 0.00 0.00 0.00 83 1012.8
20260505033024 52 203 5.0 16.0 0.00 0.00 0.00 82 1012.8
20260505032003 52 187 6.0 16.0 0.00 0.00 0.00 83 1012.9
20260505031003 52 210 8.0 12.0 0.00 0.00 0.00 81 1013.0
20260505030003 52 190 7.0 12.0 0.00 0.00 0.00 82 1013.0
20260505025024 52 197 6.0 12.0 0.00 0.00 0.00 81 1013.0
20260505024003 52 212 7.0 18.0 0.00 0.00 0.00 81 1012.8
20260505023003 52 220 10.0 18.0 0.00 0.00 0.00 81 1012.9
20260505022003 52 220 9.0 17.0 0.00 0.00 0.00 80 1013.0
20260505021002 53 223 8.0 17.0 0.00 0.00 0.00 80 1013.0
20260505020003 53 226 7.0 17.0 0.00 0.00 0.00 79 1012.8
20260505015024 53 229 8.0 17.0 0.00 0.00 0.00 79 1012.9
20260505014003 53 238 10.0 17.0 0.00 0.00 0.00 78 1012.8
20260505013003 53 235 9.0 19.0 0.00 0.00 0.00 77 1012.5
20260505012024 53 222 8.0 19.0 0.00 0.00 0.00 76 1012.4
20260505011003 53 222 11.0 19.0 0.00 0.00 0.00 76 1012.3
20260505010003 54 226 9.0 24.0 0.00 0.00 0.00 74 1012.1
20260505005003 54 227 9.0 25.0 0.00 0.00 0.00 73 1012.1
20260505004003 54 237 8.0 25.0 0.00 0.00 0.00 72 1011.9
20260505003003 54 234 13.0 24.0 0.00 0.00 0.00 71 1011.5
20260505002003 54 237 13.0 23.0 0.00 0.00 0.00 70 1011.5
20260505001024 54 236 14.0 20.0 0.00 0.00 0.00 70 1011.2
20260505000024 55 230 10.0 25.0 0.00 0.00 0.00 70 1011.5
20260504235003 55 232 9.0 25.0 0.00 0.00 0.00 69 1011.1
20260504234024 55 229 13.0 25.0 0.00 0.00 0.00 69 1010.9
20260504233003 55 234 11.0 24.0 0.00 0.00 0.00 69 1010.9
20260504232003 56 241 12.0 25.0 0.00 0.00 0.00 68 1010.7
20260504231003 56 231 11.0 25.0 0.00 0.00 0.00 67 1010.8
20260504230024 57 224 13.0 25.0 0.00 0.00 0.00 65 1010.7
20260504225003 57 223 13.0 20.0 0.00 0.00 0.00 64 1010.5
20260504224003 58 224 14.0 20.0 0.00 0.00 0.00 63 1010.6
20260504223003 58 225 13.0 20.0 0.00 0.00 0.00 61 1010.4
20260504222003 59 224 9.0 23.0 0.00 0.00 0.00 61 1010.3
20260504221003 59 226 13.0 31.0 0.00 0.00 0.00 59 1010.5
20260504220003 60 229 16.0 31.0 0.00 0.00 0.00 58 1010.3
20260504215003 60 217 13.0 24.0 0.00 0.00 0.00 57 1010.5
20260504214003 61 225 12.0 26.0 0.00 0.00 0.00 57 1010.5
20260504213024 61 234 14.0 26.0 0.00 0.00 0.00 55 1010.2
20260504212003 62 224 12.0 25.0 0.00 0.00 0.00 56 1010.3